Wind_Speed
85 96 96 89 88 89 85 82 83 93 98 109 115 114 118 122 124 114 108 102 99 89 80 71 64 41 52 39 50 54 51 53 61 62 61 68 84 76 78 74 75 72 70 68
77 78 93 96 94 93 89 87 85 88 98 101 108 117 118 125 124 119 112 101 102 92 81 75 68 68 65 47 51 43 57 61 69 73 69 74 73 75 75 71 73 78 74 73
68 77 89 94 93 93 89 85 88 88 97 101 104 112 122 123 124 122 115 105 99 94 84 78 80 81 80 63 55 51 47 52 70 79 78 84 67 66 71 77 87 76 76 76
64 76 82 88 91 92 87 89 91 94 96 99 102 103 114 123 124 123 118 109 100 98 90 81 79 89 90 69 56 44 45 37 59 86 86 74 68 72 65 78 86 75 76 77
56 71 79 83 87 90 90 94 95 96 95 100 105 101 106 121 125 122 119 113 105 99 96 90 90 76 62 57 45 52 52 60 65 69 65 76 73 71 68 74 88 73 82 85
46 61 71 79 84 89 94 95 96 98 99 99 102 103 101 113 121 121 119 116 110 103 100 96 100 103 78 65 59 61 56 71 66 73 71 71 70 79 61 67 93 84 84 84
39 55 67 73 81 88 92 92 95 94 95 88 94 100 92 98 110 120 119 119 114 110 101 106 112 111 89 72 65 58 60 63 36 61 76 74 74 58 55 56 73 76 79 81
32 46 58 65 73 79 86 90 88 87 86 84 92 98 87 86 99 114 123 119 116 113 108 107 106 109 88 76 72 61 49 55 62 47 33 43 49 55 59 53 66 66 64 68
23 34 47 64 69 71 77 81 86 88 88 91 91 90 90 86 94 104 114 120 114 113 115 107 108 105 95 86 77 68 71 63 85 57 56 62 67 66 73 78 76 71 73 83
19 31 42 50 56 66 74 79 77 76 83 83 79 79 77 82 85 94 100 115 116 114 118 112 103 102 102 89 84 80 85 97 97 81 83 87 83 82 78 79 77 80 77 84
17 22 31 36 46 59 60 61 64 66 68 63 65 67 74 82 85 91 94 104 117 116 116 113 106 103 105 102 101 102 96 112 96 100 97 88 94 94 83 80 86 85 84 87
18 20 25 31 35 39 42 49 51 56 59 63 68 72 70 71 76 76 82 94 109 116 112 116 120 107 104 111 107 109 104 107 110 105 107 104 109 102 96 93 83 80 89 88
13 17 23 21 19 22 29 34 40 45 48 45 50 53 59 63 68 69 79 88 98 115 118 120 119 121 111 110 109 112 103 114 107 95 97 101 97 99 97 98 101 102 99 103
11 16 23 31 35 32 33 35 36 38 37 40 41 43 45 54 57 61 70 76 85 103 118 115 118 120 117 117 112 119 119 122 123 119 114 110 111 115 113 112 106 111 119 123
12 17 18 24 24 25 30 29 32 31 32 27 29 31 32 30 36 46 56 70 80 89 110 117 116 124 125 122 120 113 119 117 120 122 123 122 120 116 115 120 121 124 129 132
20 22 18 19 18 21 27 29 29 32 33 30 27 24 22 12 11 30 42 55 69 79 94 116 117 120 124 122 125 121 117 122 124 120 117 120 124 120 121 119 125 132 137 139
22 20 22 20 16 13 18 24 31 36 32 28 27 29 23 8 13 14 30 48 59 67 79 95 116 116 121 129 129 130 130 127 125 125 123 127 129 132 129 129 133 132 131 133
30 29 26 23 25 23 25 26 29 29 34 42 38 41 43 34 28 24 25 37 48 56 63 77 98 113 117 125 130 131 134 135 132 130 126 126 125 131 133 133 131 133 138 141
33 32 28 25 23 25 22 16 27 44 43 47 41 39 47 40 33 28 27 30 37 50 62 70 83 98 110 116 120 128 129 129 129 131 133 133 134 134 135 136 138 137 139 142
33 34 37 34 31 29 21 26 33 34 30 38 33 37 39 37 36 32 32 33 34 35 46 56 66 78 91 105 114 116 122 128 131 132 132 131 129 130 132 134 138 138 141 145
35 33 35 40 34 32 31 29 34 32 39 43 45 41 27 22 26 30 32 31 35 32 31 42 49 57 64 75 92 106 113 115 121 126 131 134 134 134 135 136 137 141 142 142
33 30 32 37 34 34 36 35 37 43 39 43 50 48 34 34 34 38 34 37 36 35 35 34 36 40 50 58 62 70 81 97 105 110 113 117 121 124 123 122 120 111 108 102
30 35 27 28 31 32 35 33 32 34 36 44 55 54 47 45 44 40 39 39 37 34 35 32 32 35 36 39 43 53 60 66 68 73 81 86 90 93 92 89 85 81 78 74
36 26 32 32 30 22 29 31 33 31 29 32 35 39 35 38 37 37 38 40 35 35 37 37 38 42 46 49 48 47 57 59 62 63 63 64 64 60 60 60 63 60 57 58
37 27 32 32 27 21 20 23 29 33 31 27 25 29 33 35 34 36 36 34 34 37 42 44 44 43 44 44 46 50 51 53 52 48 44 42 43 46 50 45 46 50 55 60
38 35 32 36 23 15 12 7 8 11 15 15 15 23 30 33 39 39 39 36 36 38 42 43 42 41 39 38 37 38 40 41 39 34 34 35 39 40 41 45 49 55 59 62
Wind_Direction
216 213 209 213 212 210 211 211 212 212 215 214 211 211 218 223 225 220 218 217 219 217 217 217 219 216 228 240 251 258 255 256 264 269 279 266 278 281 274 273 272 274 274 275
213 210 211 211 212 213 211 210 211 213 215 214 213 212 217 221 223 222 219 216 217 216 213 215 207 213 215 217 224 215 254 260 277 275 277 280 276 272 270 268 268 270 272 273
210 206 211 210 211 215 213 212 213 213 215 214 214 213 216 221 221 223 220 218 216 213 210 213 207 209 219 221 219 227 212 258 274 271 274 277 273 273 271 270 269 267 268 272
206 205 208 210 208 213 214 215 214 216 216 213 217 215 217 220 220 220 221 218 218 213 206 209 206 212 220 218 223 208 236 228 237 263 272 269 272 270 267 273 265 262 265 265
208 205 204 209 209 212 212 214 215 218 216 215 216 217 218 220 219 219 220 219 218 215 206 208 211 205 200 209 225 215 207 224 241 260 258 265 267 265 279 276 266 260 265 270
209 206 205 205 209 212 214 215 217 219 218 217 217 217 222 222 219 220 219 218 217 219 211 207 212 218 221 225 222 213 211 213 241 250 259 264 254 267 277 274 263 265 264 267
206 204 204 207 208 210 216 218 219 221 222 218 221 219 220 225 223 220 220 218 215 220 214 209 216 224 224 222 215 212 211 213 222 240 247 248 252 250 256 267 264 264 267 268
200 203 207 208 209 215 217 218 222 225 226 224 224 221 219 227 228 222 220 219 216 216 219 214 213 221 217 211 216 211 196 211 214 211 223 236 238 248 259 258 260 266 271 275
193 203 209 208 210 213 219 223 224 223 223 225 226 221 218 223 228 227 222 220 217 216 219 219 216 219 218 209 215 202 200 195 206 220 238 252 258 258 265 269 264 260 265 274
181 195 207 215 215 215 217 221 224 226 227 229 229 226 223 227 228 229 223 220 219 216 216 223 219 217 223 211 211 208 216 228 226 228 250 255 259 265 260 261 263 272 273 277
156 186 197 204 212 216 218 222 225 227 230 230 230 230 228 229 227 225 223 219 217 217 217 219 223 219 220 221 218 221 224 227 233 240 243 252 255 258 261 265 272 273 274 277
173 165 181 191 198 207 213 221 224 228 231 231 229 229 228 227 227 225 225 220 215 216 217 218 220 221 219 224 224 227 226 229 235 245 248 250 252 257 262 264 270 273 274 274
190 176 173 160 174 189 194 200 205 214 220 226 229 232 228 227 228 223 224 222 215 214 215 216 218 221 219 222 226 228 229 231 240 246 247 251 253 256 262 266 267 270 271 273
197 186 183 177 174 180 184 182 194 196 201 210 214 217 218 224 224 221 221 222 219 216 217 218 217 221 221 221 225 230 234 239 244 247 250 254 253 257 261 263 268 270 272 275
186 175 181 182 180 187 189 185 185 194 195 205 210 211 213 214 220 223 226 219 217 218 219 219 219 220 222 222 226 231 234 239 243 247 250 253 257 258 263 267 269 271 275 277
168 172 177 186 188 189 185 186 180 187 191 188 198 204 202 178 211 210 209 213 216 219 220 220 219 221 223 223 227 232 235 239 242 245 251 255 259 262 265 268 270 272 274 276
152 169 177 178 172 192 201 191 188 195 185 179 177 169 134 271 171 207 218 214 211 216 223 222 222 220 223 226 225 229 234 239 243 245 248 253 257 261 264 268 270 272 274 276
145 152 145 149 148 166 190 197 192 182 157 136 142 152 151 185 196 204 198 211 213 211 214 221 224 225 225 227 229 230 234 236 242 246 249 253 256 259 263 266 268 271 273 276
143 139 138 134 144 157 170 163 161 155 156 145 140 151 168 179 189 194 205 206 205 210 211 212 218 224 229 230 232 232 236 239 242 246 249 253 257 260 262 264 267 271 272 274
147 146 140 128 127 152 151 153 154 150 153 153 154 166 170 174 197 208 217 217 206 220 215 216 220 224 228 232 233 236 238 240 243 246 249 252 255 257 261 263 264 268 271 273
155 155 149 133 135 136 140 153 156 158 160 158 173 179 177 199 208 200 217 219 213 209 222 222 219 224 228 233 235 237 239 242 244 246 248 251 254 257 260 263 265 267 272 275
169 169 164 146 142 146 147 152 166 177 174 178 180 191 192 207 211 211 223 216 215 214 213 215 223 232 232 233 237 239 240 242 245 248 250 252 254 257 261 263 267 271 274 277
166 185 192 155 163 166 159 162 166 177 178 183 191 198 210 205 216 220 218 219 222 228 233 227 230 242 240 243 245 245 244 245 246 250 252 255 258 261 265 268 271 273 275 277
171 164 163 143 121 129 176 180 174 174 183 189 192 193 206 217 214 219 226 228 227 227 224 247 258 263 262 258 260 253 249 248 247 252 256 259 261 264 264 266 271 274 274 277
176 169 160 162 150 128 142 170 174 186 190 195 210 220 215 214 221 225 235 234 236 240 252 261 259 260 257 255 253 255 257 260 261 264 265 265 267 272 277 274 274 276 278 281
181 179 166 172 162 162 129 157 203 190 197 196 215 226 234 243 238 234 233 237 243 249 256 261 263 260 256 253 252 253 255 256 258 263 267 272 277 272 275 277 281 281 285 289
Height
10481 10508 10542 10566 10582 10594 10613 10633 10649 10656 10661 10679 10705 10717 10712 10713 10723 10762 10782 10808 10825 10844 10862 10881 10893 10903 10891 10897 10906 10903 10901 10898 10897 10897 10903 10904 10904 10899 10891 10894 10894 10894 10894 10894
10470 10506 10521 10539 10560 10576 10595 10615 10631 10642 10646 10666 10683 10698 10692 10692 10713 10741 10765 10791 10807 10832 10853 10864 10874 10878 10879 10900 10901 10897 10896 10888 10894 10891 10893 10893 10892 10885 10883 10887 10881 10882 10884 10883
10468 10487 10500 10521 10545 10565 10585 10605 10615 10626 10629 10647 10656 10669 10677 10679 10701 10722 10751 10776 10795 10819 10840 10850 10863 10872 10877 10891 10895 10898 10893 10904 10881 10880 10882 10883 10878 10877 10876 10876 10873 10872 10871 10868
10458 10474 10490 10509 10532 10550 10579 10590 10595 10603 10608 10632 10639 10661 10663 10663 10685 10708 10734 10764 10785 10805 10825 10839 10848 10859 10867 10882 10885 10887 10902 10889 10875 10873 10868 10866 10864 10861 10865 10863 10861 10863 10862 10860
10453 10465 10481 10502 10522 10541 10558 10564 10576 10582 10598 10607 10619 10637 10656 10650 10672 10697 10720 10745 10770 10789 10812 10826 10835 10843 10856 10870 10872 10880 10888 10884 10878 10872 10861 10856 10851 10847 10855 10857 10852 10849 10846 10846
10451 10464 10479 10494 10511 10526 10533 10547 10559 10564 10577 10591 10612 10628 10635 10645 10673 10685 10706 10729 10754 10775 10800 10815 10819 10822 10840 10852 10854 10865 10877 10885 10885 10872 10858 10853 10847 10849 10844 10839 10836 10832 10832 10833
10448 10461 10473 10488 10501 10512 10524 10539 10547 10558 10569 10604 10609 10623 10644 10648 10660 10679 10693 10712 10737 10755 10779 10797 10799 10800 10825 10840 10848 10862 10870 10880 10880 10861 10849 10847 10841 10838 10832 10826 10822 10819 10820 10820
10447 10460 10473 10485 10497 10510 10517 10529 10547 10560 10573 10592 10590 10604 10642 10643 10640 10659 10675 10698 10723 10743 10762 10778 10795 10795 10813 10832 10838 10848 10854 10859 10857 10811 10826 10828 10823 10820 10818 10814 10808 10807 10807 10807
10448 10458 10469 10475 10486 10501 10513 10526 10534 10543 10553 10560 10571 10598 10618 10624 10627 10640 10665 10686 10711 10733 10747 10762 10774 10791 10797 10818 10827 10832 10833 10833 10828 10819 10818 10815 10810 10804 10802 10797 10796 10794 10792 10790
10450 10456 10464 10474 10484 10494 10501 10509 10519 10534 10543 10553 10571 10592 10615 10613 10618 10621 10646 10671 10696 10714 10729 10746 10769 10785 10787 10811 10818 10818 10819 10819 10823 10811 10802 10799 10794 10787 10779 10784 10783 10776 10772 10772
10452 10456 10462 10470 10480 10486 10495 10509 10517 10530 10540 10557 10569 10583 10590 10592 10596 10603 10626 10646 10670 10691 10712 10738 10754 10764 10782 10794 10798 10799 10802 10808 10805 10804 10793 10777 10770 10771 10773 10770 10768 10762 10759 10756
10453 10455 10459 10464 10471 10479 10491 10499 10512 10522 10536 10545 10552 10560 10566 10574 10583 10603 10615 10631 10651 10676 10699 10717 10729 10753 10768 10768 10778 10785 10784 10782 10783 10779 10767 10756 10755 10755 10758 10756 10756 10751 10744 10739
10452 10456 10459 10465 10474 10479 10486 10495 10502 10510 10521 10534 10542 10548 10552 10565 10572 10589 10599 10615 10635 10658 10677 10689 10710 10729 10742 10754 10758 10758 10760 10759 10758 10753 10745 10736 10739 10740 10737 10737 10736 10734 10729 10726
10452 10455 10459 10460 10461 10470 10479 10487 10495 10503 10513 10522 10531 10535 10543 10555 10571 10587 10597 10614 10635 10647 10663 10680 10701 10709 10725 10733 10735 10737 10736 10732 10732 10726 10723 10715 10719 10719 10720 10722 10716 10717 10715 10711
10451 10454 10457 10461 10466 10470 10472 10480 10489 10498 10509 10517 10527 10532 10546 10560 10573 10585 10594 10604 10617 10633 10645 10659 10679 10688 10696 10709 10717 10715 10718 10717 10711 10706 10696 10698 10704 10703 10709 10706 10703 10699 10696 10695
10449 10451 10455 10458 10462 10469 10475 10480 10486 10494 10502 10513 10523 10539 10549 10558 10565 10576 10589 10596 10606 10616 10621 10634 10656 10672 10686 10701 10701 10698 10700 10691 10681 10682 10682 10683 10685 10685 10691 10690 10684 10689 10685 10686
10449 10453 10455 10459 10463 10470 10478 10480 10485 10492 10502 10513 10525 10537 10542 10559 10566 10574 10578 10585 10596 10606 10613 10626 10641 10659 10667 10671 10680 10682 10682 10675 10672 10675 10678 10680 10679 10681 10678 10684 10684 10680 10674 10670
10452 10456 10458 10460 10464 10470 10475 10483 10488 10492 10500 10513 10526 10535 10543 10559 10562 10567 10569 10577 10586 10597 10606 10617 10628 10638 10645 10654 10660 10662 10660 10665 10669 10670 10672 10675 10673 10671 10675 10671 10669 10664 10657 10657
10453 10456 10461 10464 10468 10472 10480 10487 10493 10498 10503 10511 10523 10533 10543 10551 10555 10557 10562 10568 10572 10579 10589 10598 10609 10618 10627 10637 10644 10650 10653 10656 10659 10661 10664 10664 10663 10662 10661 10659 10653 10651 10646 10645
10453 10457 10460 10465 10473 10478 10484 10491 10496 10501 10505 10511 10523 10531 10532 10540 10545 10550 10554 10560 10567 10575 10582 10591 10602 10610 10617 10624 10630 10635 10640 10644 10645 10649 10650 10648 10651 10647 10645 10646 10640 10639 10634 10629
10456 10458 10463 10465 10475 10482 10488 10495 10501 10505 10510 10512 10519 10527 10533 10538 10544 10547 10552 10558 10565 10571 10577 10583 10592 10601 10607 10612 10617 10623 10627 10628 10630 10633 10635 10635 10633 10632 10631 10629 10626 10623 10621 10619
10456 10460 10463 10466 10473 10480 10486 10493 10498 10503 10508 10515 10520 10527 10532 10537 10541 10544 10550 10555 10560 10566 10572 10578 10585 10589 10594 10598 10603 10606 10609 10610 10612 10615 10616 10617 10617 10618 10619 10615 10614 10611 10605 10598
10456 10460 10462 10466 10473 10477 10480 10486 10496 10502 10507 10511 10515 10523 10530 10532 10536 10542 10547 10550 10554 10559 10565 10572 10577 10581 10585 10588 10588 10588 10587 10592 10598 10598 10600 10603 10604 10603 10604 10600 10597 10590 10585 10577
10455 10456 10460 10469 10473 10479 10485 10489 10490 10498 10507 10512 10517 10523 10528 10531 10536 10541 10544 10548 10552 10555 10559 10564 10567 10569 10571 10573 10574 10574 10575 10578 10585 10586 10588 10589 10589 10587 10583 10579 10576 10572 10566 10559
10451 10456 10458 10467 10474 10478 10485 10491 10492 10493 10499 10507 10514 10519 10523 10527 10531 10534 10538 10542 10547 10551 10553 10553 10555 10557 10558 10559 10561 10562 10564 10566 10568 10571 10571 10571 10570 10569 10567 10564 10560 10555 10550 10543
10449 10454 10458 10462 10469 10475 10482 10487 10491 10494 10498 10501 10507 10513 10517 10520 10524 10528 10532 10537 10541 10543 10544 10543 10541 10542 10545 10547 10548 10551 10553 10554 10557 10558 10558 10558 10557 10556 10555 10552 10547 10541 10534 10527